EA5SW-13 Weather Reports


time (UTC)temp
C
wind
direction
speed
KPH
gust
KPH
rain 1hr
cm
rain 24hr
cm
rain mn
cm
humidity
%
barometer
mb
20260504050639 17 0.0 0.0 0.00 0.00 0.00 80
20260504045702 17 0.0 0.0 0.00 0.00 0.00 80
20260504044638 17 0.0 0.0 0.00 0.00 0.00 80
20260504043702 17 0.0 0.0 0.00 0.00 0.00 79
20260504042638 17 0.0 0.0 0.00 0.00 0.00 79
20260504041702 17 0.0 0.0 0.00 0.00 0.00 78
20260504040638 17 0.0 0.0 0.00 0.00 0.00 78
20260504035302 17 0.0 0.0 0.00 0.00 0.00 78
20260504034258 17 0.0 0.0 0.00 0.00 0.00 78
20260504033301 17 0.0 0.0 0.00 0.00 0.00 77
20260504032238 18 0.0 0.0 0.00 0.00 0.00 77
20260504031302 18 0.0 0.0 0.00 0.00 0.00 77
20260504030238 18 0.0 0.0 0.00 0.00 0.00 77
20260504025702 18 0.0 0.0 0.00 0.00 0.00 77
20260504024638 18 0.0 0.0 0.00 0.00 0.00 77
20260504023702 18 0.0 0.0 0.00 0.00 0.00 77
20260504022638 18 0.0 0.0 0.00 0.00 0.00 77
20260504021701 18 0.0 0.0 0.00 0.00 0.00 77
20260504020638 -17 0.0 0.0 0.00 0.00 0.00
20260504015701 18 0.0 0.0 0.00 0.00 0.00 77
20260504014638 18 0.0 0.0 0.00 0.00 0.00 77
20260504013703 18 0.0 1.6 0.00 0.00 0.00 77
20260504012657 18 0.0 1.6 0.00 0.00 0.00 78
20260504011702 18 0.0 0.0 0.00 0.00 0.00 79
20260504010638 18 0.0 0.0 0.00 0.00 0.00 78
20260504005702 18 0.0 0.0 0.00 0.00 0.00 78
20260504004638 17 0.0 0.0 0.00 0.00 0.00 78
20260504003702 17 0.0 0.0 0.00 0.00 0.00 77
20260504002638 17 0.0 0.0 0.00 0.00 0.00 77
20260504001823 18 0.0 0.0 0.00 0.00 0.00 77
20260504000637 -17 0.0 0.0 0.00 0.00 0.00
20260503235703 18 0.0 0.0 0.00 0.00 0.00 77
20260503234638 18 0.0 0.0 0.00 0.00 0.00 77
20260503233722 18 0.0 0.0 0.00 0.00 0.00 77
20260503232638 18 0.0 0.0 0.00 0.00 0.00 77
20260503231722 18 0.0 0.0 0.00 0.00 0.00 77
20260503230638 18 0.0 0.0 0.00 0.00 0.00 77
20260503225702 18 0.0 0.0 0.00 0.00 0.00 77
20260503224638 18 0.0 0.0 0.00 0.00 0.00 78
20260503223702 18 0.0 0.0 0.00 0.00 0.00 78
20260503222638 18 0.0 0.0 0.00 0.00 0.00 78
20260503221722 18 0.0 0.0 0.00 0.00 0.00 79
20260503220638 -17 0.0 0.0 0.00 0.00 0.00
20260503215742 18 0.0 0.0 0.00 0.00 0.00 78
20260503214639 18 0.0 0.0 0.00 0.00 0.00 78
20260503213705 18 0.0 0.0 0.00 0.00 0.00 78
20260503212638 18 0.0 0.0 0.00 0.00 0.00 78
20260503211703 18 0.0 0.0 0.00 0.00 0.00 78
20260503210638 18 0.0 0.0 0.00 0.00 0.00 79
20260503205703 18 0.0 0.0 0.00 0.00 0.00 79
20260503204726 18 0.0 0.0 0.00 0.00 0.00 78
20260503203753 18 0.0 0.0 0.00 0.00 0.00 78
20260503202639 18 0.0 0.0 0.00 0.00 0.00 78
20260503201703 18 0.0 0.0 0.00 0.00 0.00 78
20260503200638 -17 0.0 0.0 0.00 0.00 0.00
20260503195702 18 0.0 0.0 0.00 0.00 0.00 77
20260503194638 18 0.0 0.0 0.00 0.00 0.00 77
20260503193702 18 0.0 0.0 0.00 0.00 0.00 76
20260503192638 18 0.0 0.0 0.00 0.00 0.00 76
20260503191723 18 0.0 0.0 0.00 0.00 0.00 75
20260503190638 18 0.0 0.0 0.00 0.00 0.00 75
20260503185703 18 0.0 0.0 0.00 0.00 0.00 74
20260503184638 19 0.0 1.6 0.00 0.00 0.00 74
20260503183723 19 0.0 1.6 0.00 0.00 0.00 73
20260503182639 19 0.0 0.0 0.00 0.00 0.00 73
20260503181703 19 0.0 1.6 0.00 0.00 0.00 73
20260503180638 19 0.0 0.0 0.00 0.00 0.00 71
20260503175703 19 0.0 0.0 0.00 0.00 0.00 71
20260503174639 20 0.0 1.6 0.00 0.00 0.00 70
20260503173703 20 0.0 1.6 0.00 0.00 0.00 70
20260503172639 20 0.0 0.0 0.00 0.00 0.00 70
20260503171702 20 0.0 0.0 0.00 0.00 0.00 70
20260503170639 20 0.0 0.0 0.00 0.00 0.00 70
20260503150700 -17 0.0 0.0 0.00 0.00 0.00
20260503130639 23 0.0 1.6 0.00 0.00 0.00 54
20260503110239 21 0.0 1.6 0.00 0.00 0.00 66
20260503080639 18 0.0 1.6 0.00 0.00 0.00 81
20260503072639 18 0.0 0.0 0.00 0.00 0.00 80
20260503071704 18 0.0 0.0 0.00 0.00 0.00 81
20260503070640 18 0.0 0.0 0.00 0.00 0.00 81
20260503054504 17 0.0 0.0 0.00 0.00 0.00 80
20260503053439 18 0.0 0.0 0.00 0.00 0.00 80
20260503052503 18 0.0 0.0 0.00 0.00 0.00 80